Location: Gammelsbach
(49.5261°N, 8.9630°E)
Time: 20:47:47
(UTC+00:00)

Cosmos 2228 Rocket - Pass Details

Date: 17 June 2025
Orbit: 612 x 647 km, 82.5° (Epoch: 16 July)

Event Time Altitude Azimuth Distance (km) Brightness Sun altitude
Exits shadow 22:18:25 21° 199° (SSW) 1,401 4.4 -15.6°
Maximum altitude 22:21:18 73° 280° (W) 661 3.2 -15.7°
Drops below altitude 10° 22:25:44 10° 6° (N) 2,003 6.8 -15.9°
Sets 22:27:59 0° 9° (N) 2,910 7.8 -16.0°
